Showing default

POEM, 52939

Orbit data source: Space-Track

POEM, 52939 is a payload satellite owned by ISRO (IN) in LEO that was launched on Thu, 30 Jun 2022 UTC via a PSLV launch vehicle from the Sirharikota (SRI). Payload-class satellites include a variety of spacecraft equipped with specific instruments for various scientific and technological missions. These include communications satellites like Starlink; space stations such as the ISS; scientific satellites like the Hubble; Earth observation satellites from companies like Planet Labs, Umbra, and HawkEye 360; GPS; miniature CubeSats for education and research; and military/defense satellites.

Not visible in the next 10 days
Identifier
52939, 2022-072E
Orbit
LEO
Country
Flag of ININ / IND
Related business
Manufacturer
ISRO SAC/Banga
Mission
Civil Technology
Bus & Motor
POEM, Unknown motor
Mass
50 kg wet, ~50 kg dry
Launch date (UTC)
2022-06-30 (4 years ago)
Launch vehicle
PSLV
Launch site
Sirharikota (SRI)
Object type
Payload
Rocket body
Debris
Shape & HBR
Cyl + Box, 1.8 m
Radar Cross Section
5.588 m², Large (>1 m²)

Expand to show TLE details & history
Last TLE update: 14 hours ago

TLE from 14 hours ago
0 POEM
1 52939U 22072E   26062.68738919  .00010423  00000-0  39098-3 0  9990
2 52939   9.9510 151.9328 0023309  70.9535 289.3203 15.22676514203392
Epoch: 2026-03-03T16:29Z
TLE epoch observation values (Epoch: 2026-03-03T16:29:50.426Z)
Latitude
-0°
Longitude
103.0098°
Altitude
489.507 km
Speed
7.627 km/s
True Right ascension
10h 07m 43s
True Declination
0° 00' 00"
Sunlit
Object was in full shadow at epoch
Visualization orbit readout
Latitude
Unknown
Longitude
Unknown
Altitude
Unknown
Speed
Unknown
Apparent Right ascension
Unknown
Apparent Declination
Unknown
Sunlit
N/A
Visualization observer readout
Local Sidereal Time
10:05:56
Azimuth
Unknown
Elevation
Unknown
Doppler factor
Unknown
Orbital elements
Apogee altitude
519.939 km
Perigee altitude
487.857 km
Semi-major axis
6,882.035 km
Eccentricity
0.00233
Inclination
9.951°
RAAN
151.9328°
Arg. of periapsis
70.9535°
True anomaly
289.068°
Mean anomaly
289.3203°
Eccentric anomaly
289.19417°
Mean motion
3.80161 °/min
Orbital period
94.7 mins
BSTAR
0.00039098
Loading maneuver chart data...
Computing Atmospheric mass density...
Loading historical data...
Loading historical data...
Loading historical data...
Loading historical data...
Loading historical data...
Loading historical data...
Loading historical data...
Other satellites on launch #72 in the year 2022 (2022-06-30 UTC)

Documentation

Showing up to 5 results
|